JTV YMEN-YMAV

Flight info

Callsign JTV
Flight time N/A
Altitude 4000
Route ESDAN W422 MAKAT W15 AV
Aircraft C310/L-SDFGR/S

Departure

Time 2026-04-21 05:36
Airport Melbourne Essendon Airport (YMEN)

Arrival

Time N/A
Airport Melbourne Avalon International Airport (YMAV)
Time Latitude Longitude Altitude Speed Heading
2026-04-21 05:25 -37.72491 144.89917 282 ft 0 kts 323°
2026-04-21 05:25 -37.72483 144.89923 282 ft 0 kts 64°
2026-04-21 05:31 -37.72477 144.89938 282 ft 5 kts 64°
2026-04-21 05:32 -37.72567 144.89983 282 ft 28 kts 179°
2026-04-21 05:32 -37.72815 144.89993 283 ft 41 kts 177°
2026-04-21 05:32 -37.73094 144.90007 282 ft 35 kts 179°
2026-04-21 05:32 -37.73320 144.90016 282 ft 30 kts 177°
2026-04-21 05:33 -37.73374 144.90041 282 ft 0 kts 123°
2026-04-21 05:33 -37.73375 144.90041 282 ft 0 kts 123°
2026-04-21 05:33 -37.73374 144.90041 282 ft 0 kts 123°
2026-04-21 05:35 -37.73375 144.90041 282 ft 0 kts 123°
2026-04-21 05:35 -37.73387 144.90096 282 ft 15 kts 107°
2026-04-21 05:35 -37.73111 144.90126 283 ft 88 kts 356°
2026-04-21 05:36 -37.72410 144.90093 670 ft 109 kts 359°
2026-04-21 05:36 -37.71668 144.90141 1362 ft 108 kts 17°
2026-04-21 05:36 -37.71036 144.90712 1860 ft 118 kts 41°
2026-04-21 05:36 -37.70465 144.91481 2229 ft 120 kts 42°
2026-04-21 05:37 -37.69909 144.92270 2607 ft 120 kts 42°
2026-04-21 05:37 -37.69500 144.93175 3031 ft 124 kts 77°
2026-04-21 05:37 -37.69721 144.94222 3523 ft 127 kts 120°
2026-04-21 05:37 -37.70422 144.94919 3923 ft 135 kts 148°
2026-04-21 05:38 -37.71332 144.95550 4005 ft 161 kts 150°
2026-04-21 05:38 -37.72385 144.96271 4008 ft 178 kts 150°
2026-04-21 05:38 -37.73514 144.97046 4004 ft 185 kts 150°
2026-04-21 05:38 -37.74662 144.97835 4001 ft 189 kts 150°
2026-04-21 05:39 -37.75819 144.98631 4000 ft 191 kts 150°
2026-04-21 05:39 -37.77111 144.98975 3999 ft 189 kts 195°
2026-04-21 05:39 -37.78191 144.98128 3998 ft 180 kts 238°
2026-04-21 05:39 -37.78528 144.96683 4001 ft 168 kts 279°
2026-04-21 05:40 -37.78361 144.95224 4003 ft 168 kts 283°
2026-04-21 05:40 -37.78213 144.93742 3997 ft 170 kts 277°
2026-04-21 05:40 -37.78284 144.92248 3998 ft 173 kts 268°
2026-04-21 05:40 -37.78498 144.90733 3999 ft 174 kts 263°
2026-04-21 05:41 -37.78780 144.89244 3998 ft 175 kts 261°
2026-04-21 05:41 -37.79098 144.87736 3998 ft 176 kts 260°
2026-04-21 05:41 -37.79430 144.86241 3998 ft 175 kts 259°
2026-04-21 05:41 -37.79763 144.84766 3998 ft 175 kts 259°
2026-04-21 05:42 -37.80101 144.83285 3998 ft 175 kts 259°
2026-04-21 05:42 -37.80442 144.81790 3998 ft 175 kts 259°
2026-04-21 05:42 -37.80780 144.80309 3998 ft 175 kts 259°
2026-04-21 05:42 -37.81119 144.78824 3998 ft 175 kts 259°
2026-04-21 05:43 -37.81461 144.77335 3998 ft 176 kts 258°
2026-04-21 05:43 -37.81811 144.75829 3891 ft 181 kts 261°
2026-04-21 05:43 -37.82160 144.74286 3769 ft 184 kts 259°
2026-04-21 05:43 -37.82520 144.72696 3647 ft 187 kts 258°
2026-04-21 05:44 -37.82874 144.71115 3525 ft 188 kts 258°
2026-04-21 05:44 -37.83234 144.69527 3403 ft 188 kts 258°
2026-04-21 05:44 -37.83577 144.68048 3250 ft 163 kts 259°
2026-04-21 05:44 -37.83876 144.66737 3100 ft 146 kts 259°
2026-04-21 05:45 -37.84150 144.65541 3012 ft 142 kts 259°
2026-04-21 05:45 -37.84423 144.64327 2994 ft 145 kts 259°
2026-04-21 05:45 -37.84702 144.63089 2991 ft 147 kts 259°
2026-04-21 05:45 -37.84987 144.61835 2989 ft 148 kts 259°
2026-04-21 05:46 -37.85269 144.60580 2987 ft 150 kts 259°
2026-04-21 05:46 -37.85562 144.59296 2986 ft 151 kts 258°
2026-04-21 05:46 -37.85851 144.58022 2984 ft 152 kts 258°
2026-04-21 05:46 -37.86139 144.56743 2983 ft 153 kts 258°
2026-04-21 05:47 -37.86435 144.55438 2981 ft 153 kts 258°
2026-04-21 05:47 -37.86734 144.54131 2980 ft 154 kts 257°
2026-04-21 05:47 -37.87015 144.52824 2978 ft 154 kts 260°
2026-04-21 05:47 -37.87273 144.51511 2977 ft 154 kts 259°
2026-04-21 05:48 -37.87530 144.50182 2975 ft 154 kts 259°
2026-04-21 05:48 -37.87835 144.48888 2962 ft 157 kts 241°
2026-04-21 05:48 -37.88675 144.48044 2973 ft 154 kts 194°
2026-04-21 05:48 -37.89697 144.48067 2973 ft 145 kts 151°
2026-04-21 05:49 -37.90389 144.48889 2973 ft 133 kts 107°
2026-04-21 05:49 -37.90408 144.49983 2973 ft 124 kts 64°
2026-04-21 05:49 -37.89796 144.50702 2976 ft 124 kts 20°
2026-04-21 05:49 -37.88940 144.50888 2979 ft 126 kts 10°
2026-04-21 05:50 -37.88063 144.50998 2977 ft 127 kts
2026-04-21 05:50 -37.87181 144.51106 2976 ft 128 kts
2026-04-21 05:50 -37.86355 144.51207 2959 ft 113 kts
2026-04-21 05:50 -37.85529 144.51119 2976 ft 122 kts 339°
2026-04-21 05:51 -37.85020 144.50351 2971 ft 116 kts 295°
2026-04-21 05:51 -37.85053 144.49353 2973 ft 119 kts 250°
2026-04-21 05:51 -37.85620 144.48534 2995 ft 134 kts 211°
2026-04-21 05:51 -37.86518 144.48062 2988 ft 147 kts 178°
2026-04-21 05:52 -37.87548 144.48222 2985 ft 152 kts 162°
2026-04-21 05:52 -37.88609 144.48523 2978 ft 158 kts 161°
2026-04-21 05:52 -37.89717 144.48704 2975 ft 161 kts 172°
2026-04-21 05:52 -37.90834 144.48712 2972 ft 160 kts 178°
2026-04-21 05:53 -37.91849 144.48614 2747 ft 122 kts 180°
2026-04-21 05:53 -37.92752 144.48514 2533 ft 137 kts 180°
2026-04-21 05:53 -37.93720 144.48378 2295 ft 142 kts 181°
2026-04-21 05:53 -37.94701 144.48228 2053 ft 143 kts 181°
2026-04-21 05:54 -37.95632 144.48074 1729 ft 127 kts 181°
2026-04-21 05:54 -37.96438 144.47945 1348 ft 118 kts 180°
2026-04-21 05:54 -37.97212 144.47818 1159 ft 101 kts 180°
2026-04-21 05:54 -37.97918 144.47708 1033 ft 104 kts 179°
2026-04-21 05:55 -37.98638 144.47594 891 ft 106 kts 180°
2026-04-21 05:55 -37.99371 144.47475 746 ft 107 kts 180°
2026-04-21 05:55 -38.00109 144.47353 601 ft 106 kts 180°
2026-04-21 05:55 -38.00803 144.47240 532 ft 102 kts 178°
2026-04-21 05:56 -38.01547 144.47101 885 ft 118 kts 188°
2026-04-21 05:56 -38.02411 144.46860 1404 ft 134 kts 185°
2026-04-21 05:56 -38.03315 144.46699 1926 ft 128 kts 181°
2026-04-21 05:56 -38.04145 144.46555 2433 ft 118 kts 181°
2026-04-21 05:57 -38.04945 144.46414 2876 ft 121 kts 181°
2026-04-21 05:57 -38.05878 144.46277 2978 ft 151 kts 181°
2026-04-21 05:57 -38.07007 144.46130 2985 ft 171 kts 181°
2026-04-21 05:57 -38.08231 144.45978 2979 ft 178 kts 181°
2026-04-21 05:58 -38.09463 144.45828 2976 ft 182 kts 181°
2026-04-21 05:58 -38.10739 144.45770 2954 ft 180 kts 162°
2026-04-21 05:58 -38.11596 144.46693 3327 ft 153 kts 110°
2026-04-21 05:58 -38.11668 144.47911 3788 ft 129 kts 66°
2026-04-21 05:59 -38.11369 144.48880 4390 ft 111 kts 62°
2026-04-21 05:59 -38.11092 144.49748 4857 ft 108 kts 62°
2026-04-21 05:59 -38.10783 144.50722 4965 ft 132 kts 62°
2026-04-21 06:00 -38.09965 144.53169 4978 ft 163 kts 62°
2026-04-21 06:00 -38.09505 144.54518 4974 ft 170 kts 62°
2026-04-21 06:00 -38.09024 144.55922 4972 ft 175 kts 62°
2026-04-21 06:00 -38.08533 144.57350 4971 ft 177 kts 62°
2026-04-21 06:01 -38.08043 144.58789 4970 ft 178 kts 62°
2026-04-21 06:01 -38.07547 144.60217 4969 ft 179 kts 62°
2026-04-21 06:01 -38.07043 144.61685 4970 ft 179 kts 62°
2026-04-21 06:01 -38.06547 144.63133 4970 ft 180 kts 62°
2026-04-21 06:02 -38.06045 144.64595 4970 ft 180 kts 62°
2026-04-21 06:02 -38.05547 144.66060 4971 ft 180 kts 62°
2026-04-21 06:02 -38.05050 144.67528 4972 ft 181 kts 62°
2026-04-21 06:02 -38.04554 144.68994 4973 ft 181 kts 62°
2026-04-21 06:03 -38.04069 144.70447 4974 ft 182 kts 62°
2026-04-21 06:03 -38.03572 144.71935 4975 ft 182 kts 62°
2026-04-21 06:03 -38.03079 144.73419 4976 ft 183 kts 62°
2026-04-21 06:03 -38.02590 144.74904 4978 ft 183 kts 62°
2026-04-21 06:04 -38.02101 144.76419 4980 ft 185 kts 63°
2026-04-21 06:04 -38.01610 144.77904 4980 ft 176 kts 63°